This is the latest recevied weather packets stored in our database for station/object KD2SIG. If no packets are shown the sender has not sent any weather packets the latest 10 day(s).
| Time | Temp. | Humidity | Pressure | Rain* | Wind** | Luminosity | Snow |
|---|---|---|---|---|---|---|---|
| 1778079454 | 6.67° C | 97% | 1009.7 hPa | 0 mm | - | 134 W/m² | - |
| 1778079150 | 6.67° C | 97% | 1009.7 hPa | 0 mm | - | 169 W/m² | - |
| 1778078848 | 6.67° C | 97% | 1009.9 hPa | 0 mm | - | 156 W/m² | - |
| 1778078545 | 6.67° C | 98% | 1009.6 hPa | 0 mm | - | 184 W/m² | - |
| 1778078243 | 6.11° C | 98% | 1009.9 hPa | 0 mm | - | 160 W/m² | - |
| 1778077940 | 6.11° C | 98% | 1009.8 hPa | 0 mm | - | 123 W/m² | - |
| 1778077638 | 6.11° C | 98% | 1009.9 hPa | 1.78 mm | - | 114 W/m² | - |
| 1778077336 | 6.11° C | 98% | 1009.8 hPa | 1.78 mm | - | 134 W/m² | - |
| 1778077034 | 6.11° C | 98% | 1009.9 hPa | 0 mm | - | 103 W/m² | - |
| 1778076732 | 6.11° C | 98% | 1009.8 hPa | 0 mm | - | 102 W/m² | - |
| 1778076429 | 6.11° C | 97% | 1010.1 hPa | 1.27 mm | - | 79 W/m² | - |
| 1778076126 | 6.11° C | 98% | 1010 hPa | 1.27 mm | - | 72 W/m² | - |
| 1778075823 | 6.11° C | 98% | 1009.9 hPa | 0 mm | - | 66 W/m² | - |
| 1778075519 | 5.56° C | 98% | 1009.9 hPa | 1.78 mm | - | 61 W/m² | - |
| 1778075216 | 5.56° C | 97% | 1009.9 hPa | 0 mm | - | 49 W/m² | - |
| 1778074912 | 6.11° C | 98% | 1010.1 hPa | 1.27 mm | - | 52 W/m² | - |
| 1778074609 | 6.11° C | 97% | 1009.9 hPa | 1.27 mm | - | 51 W/m² | - |
| 1778074306 | 6.11° C | 98% | 1009.8 hPa | 0 mm | - | 48 W/m² | - |
| 1778074003 | 6.11° C | 98% | 1010 hPa | 1.78 mm | - | 56 W/m² | - |
| 1778073700 | 6.11° C | 98% | 1009.7 hPa | 0 mm | - | 63 W/m² | - |
| 1778073398 | 5.56° C | 98% | 1009.7 hPa | 0 mm | - | 63 W/m² | - |
| 1778073094 | 5.56° C | 98% | 1009.7 hPa | 0 mm | - | 50 W/m² | - |
| 1778072791 | 5.56° C | 98% | 1009.9 hPa | 0 mm | - | 54 W/m² | - |
| 1778072488 | 6.11° C | 98% | 1009.9 hPa | 1.27 mm | - | 50 W/m² | - |
| 1778072186 | 6.11° C | 98% | 1009.9 hPa | 1.27 mm | - | 44 W/m² | - |
* Rain latest hour (hover to see other rain measurements)
** Current wind speed in m/s (hover to see current wind gust speed)